Location: *
(41.7492°S, 135.4150°W)
Time: 21:52:12
(UTC+00:00)

METEOR M2 - Pass Details

Date: 02 July 2022
Orbit: 818 x 827 km, 98.4° (Epoch: 17 August)

Event Time Altitude Azimuth Distance (km) Brightness Sun altitude
Exits shadow 04:11:46 77° 164° (SSE) 857 ? -27.1°
Maximum altitude 04:12:13 90° 93° (E) 836 ? -27.2°
Drops below altitude 10° 04:17:36 10° 345° (NNW) 2,422 ? -28.2°
Sets 04:19:56 0° 345° (NNW) 3,348 ? -28.6°
